Location: Drocourt
(49.0571°N, 1.7669°E)
Time: 19:16:28
(UTC+00:00)

Lacrosse 5 rocket - Pass Details

Date: 09 February 2023
Orbit: 454 x 613 km, 57.0° (Epoch: 25 March)

Event Time Altitude Azimuth Distance (km) Brightness Sun altitude
Rises 16:55:33 0° 303° (WNW) 2,475 5.2 0.3°
Reaches altitude 10° 16:57:41 10° 301° (WNW) 1,604 4.3 -0.1°
Maximum altitude 17:01:14 68° 219° (SW) 505 1.5 -0.6°
Drops below altitude 10° 17:04:52 10° 136° (SE) 1,640 3.5 -1.2°
Enters shadow 17:14:11 -19° 132° (SE) 5,412 6.1 -2.6°
Exits shadow 17:35:22 -61° 130° (SE) 11,812 7.9 -5.9°
Sets 18:44:04 0° 184° (S) 2,553 4.8 -17.0°
